Location: Caltech
(34.1382°N, 118.1253°W)
Time: 09:33:07
(UTC-07:00)

AO-27 - Visible Passes

Search period start: 30 March 2017 00:00
Search period end: 09 April 2017 00:00
Orbit: 786 x 797 km, 98.8° (Epoch: 28 March)

Date Brightness Start Highest point End Pass type
(mag) Time Alt. Az. Time Alt. Az. Time Alt. Az.
30 Mar 9.7 03:22:15 10° NE 03:25:10 23° ENE 03:25:10 23° ENE visible
30 Mar 8.4 05:01:22 10° N 05:05:56 32° WNW 05:05:56 32° WNW visible
31 Mar 10.5 02:55:06 10° ENE 02:55:54 11° ENE 02:55:54 11° ENE visible
31 Mar 7.7 04:31:56 10° N 04:36:41 60° NW 04:36:41 60° NW visible
01 Apr 8.0 04:02:53 10° NNE 04:07:26 60° ENE 04:07:26 60° ENE visible
01 Apr 9.4 05:44:40 10° NW 05:46:55 13° WNW 05:48:11 12° WNW visible
02 Apr 9.2 03:34:17 10° NE 03:38:10 32° E 03:38:10 32° E visible
02 Apr 8.7 05:14:06 10° NNW 05:18:14 25° WNW 05:18:56 24° W visible
03 Apr 10.1 03:06:26 10° NE 03:08:54 16° E 03:08:54 16° E visible
03 Apr 7.9 04:44:27 10° N 04:49:25 47° WNW 04:49:40 46° W visible
04 Apr 7.5 04:15:15 10° NNE 04:20:25 88° NE 04:20:25 88° NE visible
05 Apr 8.6 03:46:27 10° NNE 03:51:09 44° E 03:51:09 44° E visible
05 Apr 9.1 05:26:57 10° NNW 05:30:31 19° WNW 05:31:55 17° W visible
06 Apr 9.6 03:18:12 10° NE 03:21:54 22° E 03:21:54 22° E visible
06 Apr 8.3 04:57:03 10° N 05:01:44 35° WNW 05:02:39 33° W visible
07 Apr 10.4 02:51:42 10° ENE 02:52:38 11° E 02:52:38 11° E visible
07 Apr 7.5 04:27:41 10° N 04:32:51 70° WNW 04:33:24 64° WSW visible
08 Apr 8.0 03:58:42 10° NNE 04:03:50 59° ESE 04:04:08 58° ESE visible
08 Apr 9.4 05:40:03 10° NNW 05:42:45 14° WNW 05:44:53 12° W visible
